This demonstration page uses our WeatherBlox Daily Observations layout. Learn more.

Left ArrowRight Arrow

-33.86785, 151.20732

Hourly Observations for April 19, 2016

Temp ( °F °C ) Dew Point ( °F °C ) Humidity (%) Winds ( mph kmh ) Pressure ( in mb ) Visibility ( mi km ) Precip ( " mm )
12:00 am 00:00 Mostly Cloudy with Light Showers 64 18 63 17 94 94 W 12 19 30.12 1020 30 48 N/A
12:20 am 00:20 Mostly Cloudy with Light Showers 64 18 63 17 94 94 WSW 13 20 30.09 1019 30 48 N/A
12:30 am 00:30 Mostly Cloudy with Light Showers 64 18 63 17 94 94 WSW 15 24 30.09 1019 30 48 N/A
1:00 am 01:00 Mostly Cloudy with Showers 64 18 63 17 94 94 SW 15 24 30.09 1019 2 4 N/A
1:30 am 01:30 Mostly Cloudy with Showers 64 18 63 17 94 94 SSW 16 26 30.09 1019 2 4 N/A
2:00 am 02:00 Mostly Cloudy with Showers 64 18 63 17 94 94 SSW 13 20 30.12 1020 2 4 N/A
2:30 am 02:30 Mostly Cloudy with Showers 64 18 63 17 94 94 SW 12 19 30.09 1019 2 4 N/A
3:00 am 03:00 Mostly Cloudy with Light Rain 64 18 63 17 94 94 SSW 12 19 30.09 1019 2 4 N/A
3:30 am 03:30 Mostly Cloudy with Showers 64 18 63 17 94 94 SSW 13 20 30.09 1019 2 4 N/A
4:00 am 04:00 Mostly Cloudy with Showers 64 18 63 17 94 94 SSW 10 17 30.09 1019 2 4 N/A
4:30 am 04:30 Mostly Cloudy with Showers 63 17 63 17 100 100 SSW 10 17 30.09 1019 2 4 N/A
5:00 am 05:00 Mostly Cloudy with Showers 63 17 63 17 100 100 SSW 10 17 30.09 1019 2 4 N/A
5:30 am 05:30 Partly Cloudy 63 17 61 16 94 94 SSW 9 15 30.09 1019 30 48 N/A
6:00 am 06:00 Mostly Clear 64 18 63 17 94 94 SW 7 11 30.09 1019 30 48 N/A
6:24 am 06:24 Mostly Cloudy 63 17 61 16 94 94 WNW 8 13 30.09 1019 30 48 N/A
6:30 am 06:30 Mostly Cloudy 63 17 63 17 100 100 WNW 8 13 30.09 1019 30 48 N/A
7:00 am 07:00 Mostly Cloudy 63 17 61 16 94 94 NW 8 13 30.12 1020 30 48 N/A
7:20 am 07:20 Mostly Cloudy 64 18 61 16 88 88 NW 8 13 30.12 1020 30 48 N/A
7:30 am 07:30 Partly Cloudy 64 18 63 17 94 94 NW 8 13 30.12 1020 30 48 N/A
8:00 am 08:00 Mostly Cloudy with Light Showers 64 18 61 16 88 88 WNW 7 11 30.15 1021 30 48 N/A
8:30 am 08:30 Partly Cloudy 68 20 63 17 83 83 NW 7 11 30.15 1021 30 48 N/A
9:00 am 09:00 Partly Cloudy 68 20 64 18 88 88 W 6 9 30.15 1021 30 48 N/A
9:30 am 09:30 Mostly Cloudy 68 20 64 18 88 88 W 6 9 30.15 1021 30 48 N/A
10:00 am 10:00 Mostly Cloudy with Showers Nearby 70 21 64 18 83 83 SSW 7 11 30.15 1021 30 48 N/A
10:30 am 10:30 Mostly Cloudy with Showers Nearby 70 21 64 18 83 83 SSW 9 15 30.15 1021 30 48 N/A
11:30 am 11:30 Mostly Cloudy with Showers Nearby 70 21 63 17 78 78 S 13 20 30.15 1021 30 48 N/A
12:00 pm 12:00 Mostly Cloudy with Showers Nearby 70 21 63 17 78 78 S 10 17 30.12 1020 30 48 N/A
12:30 pm 12:30 Partly Cloudy 70 21 64 18 83 83 S 12 19 30.12 1020 30 48 N/A
1:30 pm 13:30 Partly Cloudy 72 22 64 18 78 78 S 12 19 30.12 1020 30 48 N/A
2:30 pm 14:30 Mostly Cloudy 72 22 63 17 73 73 SE 12 19 30.09 1019 30 48 N/A
3:00 pm 15:00 Mostly Cloudy 72 22 63 17 73 73 SE 12 19 30.12 1020 30 48 N/A
3:30 pm 15:30 Mostly Cloudy 72 22 63 17 73 73 SE 10 17 30.12 1020 30 48 N/A
4:00 pm 16:00 Mostly Cloudy 72 22 63 17 73 73 SE 9 15 30.12 1020 30 48 N/A
4:30 pm 16:30 Mostly Cloudy 70 21 64 18 83 83 SE 9 15 30.12 1020 30 48 N/A
5:00 pm 17:00 Mostly Cloudy 70 21 63 17 78 78 SE 8 13 30.12 1020 30 48 N/A
5:30 pm 17:30 Mostly Cloudy 70 21 63 17 78 78 SE 8 13 30.15 1021 30 48 N/A
6:00 pm 18:00 Mostly Cloudy 70 21 63 17 78 78 ESE 7 11 30.15 1021 30 48 N/A
6:30 pm 18:30 Partly Cloudy 70 21 63 17 78 78 SE 7 11 30.15 1021 30 48 N/A
7:00 pm 19:00 Mostly Cloudy 70 21 63 17 78 78 ESE 5 7 30.18 1022 30 48 N/A
7:30 pm 19:30 Mostly Cloudy 68 20 63 17 83 83 E 6 9 30.18 1022 30 48 N/A
8:00 pm 20:00 Mostly Cloudy 68 20 63 17 83 83 ESE 5 7 30.18 1022 30 48 N/A
8:30 pm 20:30 Mostly Cloudy 68 20 63 17 83 83 SE 3 6 30.18 1022 30 48 N/A
9:00 pm 21:00 Mostly Cloudy 68 20 63 17 83 83 Calm 30.18 1022 30 48 N/A
9:30 pm 21:30 Mostly Cloudy 68 20 63 17 83 83 Calm 30.18 1022 30 48 N/A
10:00 pm 22:00 Partly Cloudy 66 19 64 18 94 94 WSW 7 11 30.21 1023 30 48 N/A
10:30 pm 22:30 Partly Cloudy 66 19 64 18 94 94 WSW 6 9 30.21 1023 30 48 N/A
11:00 pm 23:00 Partly Cloudy 66 19 63 17 88 88 W 6 9 30.18 1022 30 48 N/A
11:30 pm 23:30 Partly Cloudy 66 19 63 17 88 88 W 5 7 30.21 1023 30 48 N/A

Powered by Vaisala Xweather